• Em Portugal
  • Lista de países
  • Para 7 dias
  • Temperatura da água
  • Mapas de satélite
  • Mapa do tempo
  • Widgets de tempo
  • user-avatar
    Iniciar Sessão

    Previsão horária em Aracaju

    Hoje, 17 Julho, Terça-feira

    Tempo Temperatura Precipitação Vento Pressão Humidade
    00:00 +24°C° 0,1 mm 2 m/s 763 mmHg 85%
    01:00 +24°C° 0,1 mm 2 m/s 763 mmHg 85%
    02:00 +24°C° 0,2 mm 2 m/s 763 mmHg 86%
    03:00 +24°C° 0,2 mm 2 m/s 763 mmHg 87%
    04:00 +23°C° 0,2 mm 2 m/s 762 mmHg 88%
    05:00 +24°C° 0,4 mm 3 m/s 762 mmHg 88%
    06:00 +24°C° 0,4 mm 3 m/s 763 mmHg 88%
    07:00 +24°C° 0,4 mm 3 m/s 763 mmHg 88%
    08:00 +25°C° 0,2 mm 4 m/s 763 mmHg 84%
    09:00 +26°C° 0,2 mm 4 m/s 764 mmHg 80%
    10:00 +27°C° 0,2 mm 4 m/s 764 mmHg 76%
    11:00 +28°C° 0,1 mm 4 m/s 764 mmHg 72%
    12:00 +29°C° 0,1 mm 5 m/s 763 mmHg 67%
    13:00 +29°C° 0,1 mm 5 m/s 763 mmHg 63%
    14:00 +29°C° 0 mm 5 m/s 763 mmHg 62%
    15:00 +29°C° 0 mm 4 m/s 762 mmHg 62%
    16:00 +29°C° 0 mm 4 m/s 762 mmHg 61%
    17:00 +28°C° 0 mm 4 m/s 762 mmHg 67%
    18:00 +26°C° 0 mm 4 m/s 762 mmHg 73%
    19:00 +25°C° 0 mm 4 m/s 762 mmHg 80%
    20:00 +25°C° 0 mm 4 m/s 762 mmHg 82%
    21:00 +23°C° 0 mm 4 m/s 763 mmHg 84%
    22:00 +23°C° 0 mm 4 m/s 763 mmHg 86%
    23:00 +23°C° 0,1 mm 4 m/s 763 mmHg 87%

    Amanhã, 18 Julho, Quarta-feira

    Tempo Temperatura Precipitação Vento Pressão Humidade
    00:00 +23°C° 0,1 mm 4 m/s 763 mmHg 87%
    01:00 +23°C° 0,1 mm 4 m/s 763 mmHg 88%
    02:00 +23°C° 0,2 mm 4 m/s 763 mmHg 88%
    03:00 +23°C° 0,2 mm 4 m/s 762 mmHg 88%
    04:00 +23°C° 0,2 mm 4 m/s 762 mmHg 88%
    05:00 +23°C° 0,2 mm 4 m/s 762 mmHg 88%
    06:00 +23°C° 0,2 mm 4 m/s 762 mmHg 88%
    07:00 +23°C° 0,2 mm 4 m/s 762 mmHg 88%
    08:00 +25°C° 0,2 mm 4 m/s 763 mmHg 84%
    09:00 +26°C° 0,2 mm 5 m/s 763 mmHg 80%
    10:00 +27°C° 0,2 mm 5 m/s 764 mmHg 77%
    11:00 +28°C° 0,1 mm 5 m/s 763 mmHg 73%
    12:00 +28°C° 0,1 mm 5 m/s 763 mmHg 68%
    13:00 +29°C° 0,1 mm 5 m/s 763 mmHg 64%
    14:00 +29°C° 0 mm 5 m/s 762 mmHg 63%
    15:00 +29°C° 0 mm 5 m/s 762 mmHg 63%
    16:00 +29°C° 0 mm 5 m/s 761 mmHg 62%
    17:00 +27°C° 0 mm 4 m/s 761 mmHg 68%
    18:00 +26°C° 0 mm 4 m/s 761 mmHg 74%
    19:00 +25°C° 0 mm 4 m/s 761 mmHg 80%
    20:00 +25°C° 0 mm 4 m/s 762 mmHg 81%
    21:00 +25°C° 0 mm 4 m/s 762 mmHg 82%
    22:00 +24°C° 0 mm 3 m/s 763 mmHg 82%
    23:00 +24°C° 0,1 mm 3 m/s 762 mmHg 84%

    Depois de amanhã, 19 Julho, Quinta-feira

    Tempo Temperatura Precipitação Vento Pressão Humidade
    00:00 +24°C° 0,1 mm 3 m/s 762 mmHg 85%
    01:00 +24°C° 0,1 mm 3 m/s 762 mmHg 86%
    02:00 +24°C° 0,1 mm 3 m/s 762 mmHg 87%
    03:00 +24°C° 0,1 mm 3 m/s 761 mmHg 88%
    04:00 +24°C° 0,1 mm 3 m/s 761 mmHg 88%
    05:00 +23°C° 0,2 mm 4 m/s 761 mmHg 89%
    06:00 +23°C° 0,2 mm 4 m/s 761 mmHg 89%
    07:00 +23°C° 0,2 mm 4 m/s 761 mmHg 89%
    08:00 +25°C° 0,4 mm 4 m/s 762 mmHg 86%
    09:00 +26°C° 0,4 mm 5 m/s 762 mmHg 82%
    10:00 +27°C° 0,4 mm 5 m/s 763 mmHg 78%
    11:00 +27°C° 0,5 mm 5 m/s 762 mmHg 77%
    12:00 +28°C° 0,5 mm 5 m/s 762 mmHg 76%
    13:00 +28°C° 0,5 mm 5 m/s 762 mmHg 75%
    14:00 +28°C° 0,2 mm 5 m/s 761 mmHg 74%
    15:00 +28°C° 0,2 mm 5 m/s 761 mmHg 74%
    16:00 +28°C° 0,2 mm 5 m/s 760 mmHg 74%
    17:00 +27°C° 0,2 mm 4 m/s 760 mmHg 78%
    18:00 +26°C° 0,2 mm 4 m/s 761 mmHg 82%
    19:00 +25°C° 0,2 mm 4 m/s 761 mmHg 86%
    20:00 +25°C° 0,4 mm 4 m/s 761 mmHg 87%
    21:00 +25°C° 0,4 mm 4 m/s 762 mmHg 87%
    22:00 +25°C° 0,4 mm 4 m/s 762 mmHg 88%
    23:00 +25°C° 0,5 mm 4 m/s 762 mmHg 88%

    20 Julho, Sexta-feira

    Tempo Temperatura Precipitação Vento Pressão Humidade
    00:00 +25°C° 0,5 mm 4 m/s 762 mmHg 88%
    01:00 +23°C° 0,5 mm 4 m/s 762 mmHg 88%
    02:00 +25°C° 0,5 mm 4 m/s 761 mmHg 87%
    03:00 +25°C° 0,5 mm 4 m/s 761 mmHg 87%
    04:00 +25°C° 0,5 mm 4 m/s 760 mmHg 87%
    05:00 +25°C° 0,2 mm 4 m/s 761 mmHg 87%
    06:00 +25°C° 0,2 mm 4 m/s 761 mmHg 87%
    07:00 +25°C° 0,2 mm 4 m/s 761 mmHg 87%
    08:00 +26°C° 0,2 mm 4 m/s 762 mmHg 83%
    09:00 +27°C° 0,2 mm 5 m/s 762 mmHg 80%
    10:00 +28°C° 0,2 mm 5 m/s 763 mmHg 76%
    11:00 +28°C° 0,1 mm 5 m/s 762 mmHg 73%
    12:00 +29°C° 0,1 mm 5 m/s 762 mmHg 69%
    13:00 +29°C° 0,1 mm 5 m/s 761 mmHg 66%
    14:00 +29°C° 0 mm 5 m/s 761 mmHg 67%
    15:00 +29°C° 0 mm 5 m/s 761 mmHg 68%
    16:00 +29°C° 0 mm 5 m/s 760 mmHg 68%
    17:00 +28°C° 0,1 mm 4 m/s 761 mmHg 74%
    18:00 +27°C° 0,1 mm 4 m/s 761 mmHg 80%
    19:00 +25°C° 0,1 mm 4 m/s 761 mmHg 85%
    20:00 +25°C° 0,2 mm 4 m/s 762 mmHg 86%
    21:00 +25°C° 0,2 mm 3 m/s 762 mmHg 87%
    22:00 +25°C° 0,2 mm 3 m/s 762 mmHg 88%
    23:00 +25°C° 0,4 mm 3 m/s 762 mmHg 88%

    21 Julho, Sábado

    Tempo Temperatura Precipitação Vento Pressão Humidade
    00:00 +25°C° 0,4 mm 3 m/s 762 mmHg 88%
    01:00 +24°C° 0,4 mm 3 m/s 762 mmHg 88%
    02:00 +24°C° 0,4 mm 3 m/s 761 mmHg 89%
    03:00 +24°C° 0,4 mm 3 m/s 761 mmHg 89%
    04:00 +24°C° 0,4 mm 3 m/s 761 mmHg 89%
    05:00 +24°C° 0,4 mm 3 m/s 761 mmHg 89%
    06:00 +24°C° 0,4 mm 3 m/s 762 mmHg 89%
    07:00 +24°C° 0,4 mm 3 m/s 762 mmHg 89%
    08:00 +25°C° 0,7 mm 4 m/s 763 mmHg 86%
    09:00 +26°C° 0,7 mm 4 m/s 763 mmHg 83%
    10:00 +27°C° 0,7 mm 5 m/s 763 mmHg 81%
    11:00 +27°C° 1 mm 5 m/s 763 mmHg 80%
    12:00 +27°C° 1 mm 5 m/s 763 mmHg 80%
    13:00 +28°C° 1 mm 5 m/s 763 mmHg 79%
    14:00 +27°C° 0,6 mm 5 m/s 762 mmHg 79%
    15:00 +27°C° 0,6 mm 5 m/s 762 mmHg 79%
    16:00 +27°C° 0,6 mm 5 m/s 761 mmHg 79%
    17:00 +27°C° 0,2 mm 4 m/s 761 mmHg 82%
    18:00 +26°C° 0,2 mm 4 m/s 762 mmHg 84%
    19:00 +25°C° 0,2 mm 3 m/s 762 mmHg 87%
    20:00 +25°C° 0,4 mm 4 m/s 762 mmHg 87%
    21:00 +25°C° 0,4 mm 4 m/s 763 mmHg 87%
    22:00 +25°C° 0,4 mm 4 m/s 763 mmHg 87%
    23:00 +25°C° 0,3 mm 4 m/s 763 mmHg 87%

    22 Julho, Domingo

    Tempo Temperatura Precipitação Vento Pressão Humidade
    00:00 +25°C° 0,3 mm 4 m/s 763 mmHg 87%
    01:00 +25°C° 0,3 mm 4 m/s 763 mmHg 87%
    02:00 +25°C° 0,1 mm 4 m/s 762 mmHg 87%
    03:00 +25°C° 0,1 mm 4 m/s 762 mmHg 87%
    04:00 +23°C° 0,1 mm 4 m/s 762 mmHg 88%
    05:00 +23°C° 0,1 mm 4 m/s 762 mmHg 88%
    06:00 +23°C° 0,1 mm 4 m/s 762 mmHg 88%
    07:00 +23°C° 0,1 mm 4 m/s 762 mmHg 89%
    08:00 +25°C° 0,1 mm 4 m/s 762 mmHg 85%
    09:00 +26°C° 0,1 mm 5 m/s 763 mmHg 82%
    10:00 +27°C° 0,1 mm 5 m/s 763 mmHg 78%
    11:00 +28°C° 0,1 mm 6 m/s 763 mmHg 75%
    12:00 +28°C° 0,1 mm 6 m/s 763 mmHg 72%
    13:00 +29°C° 0,1 mm 6 m/s 762 mmHg 68%
    14:00 +28°C° 0 mm 6 m/s 762 mmHg 69%
    15:00 +28°C° 0 mm 6 m/s 762 mmHg 69%
    16:00 +28°C° 0 mm 5 m/s 762 mmHg 69%
    17:00 +27°C° 0 mm 5 m/s 762 mmHg 73%
    18:00 +26°C° 0 mm 5 m/s 762 mmHg 78%
    19:00 +25°C° 0 mm 4 m/s 763 mmHg 83%
    20:00 +23°C° 0 mm 4 m/s 763 mmHg 83%
    21:00 +23°C° 0 mm 4 m/s 763 mmHg 83%
    22:00 +23°C° 0 mm 4 m/s 764 mmHg 83%
    23:00 +23°C° 0 mm 4 m/s 764 mmHg 83%
    Mostrar mais